Regional Weather Roundup
Issued by NWS

Home | Current Version | Previous Version | Graphics & Text | Print | Product List | Glossary On
Versions: 1 2 3 4 5 6 7 8 9 10 11 12 13 14 15 16 17 18 19 20 21 22 23 24
000
ASUS45 KTFX 191310
RWRMT
MONTANA REGIONAL WEATHER ROUNDUP
NATIONAL WEATHER SERVICE GREAT FALLS MT
700 AM MDT TUE SEP 19 2017

NOTE: "FAIR" INDICATES FEW OR NO CLOUDS BELOW 12000 FEET WITH NO
SIGNIFICANT WEATHER AND/OR OBSTRUCTIONS TO VISIBILITY.

MTZ001>007-043-191400-
WEST OF THE DIVIDE

CITY           SKY/WX    TMP DP  RH WIND       PRES   REMARKS
KALISPELL      CLOUDY    41  41 100 NW3       29.71R
MISSOULA       LGT RAIN  39  39 100 S3        29.76R
BUTTE          CLOUDY    35  34  96 CALM      29.73S
MULLAN PASS    CLOUDY    31  29  92 SW5       29.70S
ANACONDA         N/A     36  36 100 CALM      29.73S
DEER LODGE       N/A     36  36 100 W3        29.75R
HAMILTON         N/A     43  36  75 NW9       29.75R
LIBBY            N/A     39  39 100 CALM      29.70S
PLAINS           N/A     37  33  85 CALM      29.75S VSB 0
$$

MTZ008-052>055-191400-
SOUTHWEST MONTANA

CITY           SKY/WX    TMP DP  RH WIND       PRES   REMARKS
BOZEMAN        LGT RAIN  42  37  82 W10       29.71R
DILLON         PTCLDY    37  33  85 S8        29.72S WCI  31
W YELLOWSTONE  MIX PCPN  34  34 100 SW8       29.73R WCI  27
ENNIS          CLOUDY    39  36  87 S8        29.76S
THREE FORKS      N/A     44  38  79 CALM      29.74R
TWIN BRIDGES     N/A     37  31  79 CALM      29.75R
$$

MTZ009-010-012-014-046-048-049-054-191400-
EAST SLOPES AND CENTRAL MONTANA

CITY           SKY/WX    TMP DP  RH WIND       PRES   REMARKS
CUT BANK       MOCLDY    34  31  88 W9        29.61R WCI  27
GREAT FALLS    CLOUDY    41  33  73 SW9       29.64R
MALMSTROM AFB  CLOUDY    45  35  67 W12       29.65R
HELENA         CLOUDY    45  34  65 W7        29.69F
BOWMANS CRNR     N/A     39  33  79 SW13      29.65R WCI  31
CHOTEAU          N/A     39  30  70 SW5       29.66R
FAIRFIELD      MOCLDY    41  31  69 SW8       29.64R
POWER          MOCLDY    38  33  82 SW9       29.63S WCI  32
RAYNESFORD     MOCLDY    46  30  55 W13       29.64R
ULM            MOCLDY    44  33  65 W14       29.66R
$$

MTZ011-013-016-021-045-047-050-051-191400-
NORTH CENTRAL MONTANA

CITY           SKY/WX    TMP DP  RH WIND       PRES   REMARKS
HAVRE          CLOUDY    46  39  76 SW12      29.57F
LEWISTOWN      CLOUDY    44  37  76 W7        29.62S
N BAR RANCH    CLOUDY    45  34  65 W16G22    29.65R
CHINOOK          N/A     48  37  66 W6        29.55F
DENTON           N/A     46  36  68 W10       29.58R
GEYSER         CLOUDY    43  34  69 W13       29.62S
GRASS RANGE    LGT RAIN  46  35  64 W12       29.58S
JUDITH GAP     CLOUDY    43  32  65 NW8       29.63R
WINIFRED       CLOUDY    45  37  72 W7        29.60S
$$

MTZ017>020-022>027-061-062-191400-
NORTHEAST MONTANA

CITY           SKY/WX    TMP DP  RH WIND       PRES   REMARKS
GLASGOW        LGT RAIN  49  46  90 W9        29.50S
JORDAN           N/A     50  47  89 W6        29.55R
SIDNEY         CLOUDY    59  48  67 W6        29.44S
WOLF POINT     CLOUDY    56  51  84 W13       29.48R
MALTA          CLEAR     48  41  76 W10       29.53S
PLENTYWOOD       N/A     57  48  72 CALM      29.46R
POPLAR           N/A     54  50  87 W7        29.45F
SCOBEY           N/A     51  44  77 CALM      29.48F
$$

MTZ028>42-056>058-191400-
SOUTHCENTRAL AND SOUTHEAST MONTANA

CITY           SKY/WX    TMP DP  RH WIND       PRES   REMARKS
BAKER          CLOUDY    56  43  61 W14       29.50R
BILLINGS       CLOUDY    47  41  80 W16G24    29.64R
LIVINGSTON     LGT RAIN  42  38  85 W14       29.67R
MILES CITY     CLOUDY    55  47  74 W10       29.54R
BIG TIMBER     CLOUDY    41  37  87 W17G23    29.68S
EKALAKA          N/A     55  42  61 W5        29.57R
HARLOWTON      MOCLDY    45  32  61 MISG      29.64S
LAUREL           N/A     45  41  87 W10       29.66R
$$

REGIONAL REPORTS...DAKOTAS

CITY           SKY/WX    TMP DP  RH WIND       PRES   REMARKS
WILLISTON      CLOUDY    59  49  69 CALM      29.42F
MINOT          CLOUDY    56  54  93 E16       29.49F
DICKINSON      CLOUDY    59  50  72 S12       29.44S
BEACH          CLOUDY    57  46  67 W15       29.47S
CROSBY           N/A     54  48  82 E15G25    29.43F
TIOGA            N/A     59  52  77 SE13      29.45F
WATFORD CITY     N/A     57  50  77 CALM      29.41F
BISMARCK       CLOUDY    63  57  81 SE21G28   29.54F
GRAND FORKS    FOG       59  59 100 SE14      29.74F VSB 1
FARGO          CLOUDY    62  61  96 SE8       29.76S FOG
BUFFALO SD       N/A     59  44  57 W13       29.45R
RAPID CITY     CLEAR     61  46  59 S9        29.55F
$$

REGIONAL REPORTS...WYOMING/IDAHO/WASHINGTON

CITY           SKY/WX    TMP DP  RH WIND       PRES   REMARKS
GILLETTE       CLOUDY    52  44  74 SW10      29.61R
SHERIDAN       CLOUDY    51  43  74 NW12      29.59R
BUFFALO WY     CLOUDY    53  41  63 S7        29.58F
CODY           CLOUDY    44  41  89 W6        29.65S
YELLOWSTONE LA   N/A     32  32 100 CALM      29.75S
IDAHO FALLS    CLOUDY    42  39  89 SW23G33   29.79S
SALMON         LGT RAIN  41  39  93 CALM      29.78S
BOISE          CLOUDY    48  40  73 W6        29.86R
SPOKANE        LGT RAIN  45  44  97 S10       29.70S
$$

REGIONAL REPORTS...ALBERTA

CITY           SKY/WX    TMP DP  RH WIND       PRES   REMARKS
EDMONTON       RAIN      43  43 100 W5        29.43F
CALGARY        PTCLDY    36  30  80 SW7       29.56S WCI  30
LETHBRIDGE     PTCLDY    30  28  93 SW6       29.60S WCI  24
MEDICINE HAT   CLOUDY    41  37  87 SW8       29.55R
$$

REGIONAL REPORTS...SASKATCHEWAN

CITY           SKY/WX    TMP DP  RH WIND       PRES   REMARKS
SWIFT CURRENT  PTCLDY    46  43  87 W9        29.48S
REGINA         LGT RAIN  55  48  76 E18       29.49F
SASKATOON      LGT RAIN  54  50  87 SE16G22   29.48R
$$




USA.gov is the U.S. government's official web portal to all federal, state and local government web resources and services.